RH
100 102 101 101 101 101 99 99 100 101 103 103 102 99 96 94 91 89 85 74 65 59 55 57 62 63 58 55 64 74 75 70 61 54 56 62 64 64 69 74 76 80 87 94 96 97 99 100 100 99 100 101 95 87 89 97 98 94 94 98 97 92 88
96 99 100 100 100 100 100 101 101 100 102 102 102 101 99 95 90 87 81 71 65 62 61 66 70 66 60 55 61 74 83 81 73 65 62 65 67 65 66 69 72 76 81 86 90 92 95 98 100 101 100 102 98 84 77 83 90 93 93 93 95 89 86
98 99 100 99 99 100 100 100 99 97 96 95 94 94 94 93 90 88 82 72 65 63 67 77 79 77 71 61 56 61 74 83 84 78 71 69 72 73 75 76 77 81 83 84 87 92 97 99 101 104 101 99 102 96 84 79 84 94 99 95 95 91 90
99 97 95 94 95 97 97 95 94 92 88 86 84 84 87 93 96 94 87 76 68 66 74 86 91 88 82 72 62 56 60 71 82 85 82 77 76 78 81 79 80 86 86 87 91 93 96 101 103 105 104 99 99 101 97 89 81 82 93 98 98 100 99
97 97 97 99 101 102 102 102 102 100 94 87 82 81 84 91 98 99 93 82 73 70 75 88 97 95 86 80 74 65 60 62 70 81 87 85 82 83 86 85 84 86 86 88 92 91 94 101 103 104 104 102 99 100 100 100 90 74 73 85 93 98 102
99 101 103 103 102 99 98 100 101 101 99 94 88 84 86 91 96 99 98 92 81 75 79 89 99 96 86 79 76 73 69 64 64 73 82 87 86 84 86 88 88 86 85 88 90 87 88 94 100 104 105 103 101 100 99 101 100 85 67 67 74 81 89
100 101 102 97 90 83 78 80 82 82 86 88 86 84 85 87 91 96 99 97 86 81 85 90 95 94 87 78 71 68 71 71 69 69 73 80 83 83 82 83 85 84 82 85 89 88 86 85 90 98 104 106 102 100 100 100 101 98 82 66 60 63 70
101 100 101 98 95 90 81 78 76 72 76 84 86 85 84 84 86 89 92 92 86 81 82 84 84 86 84 79 71 63 64 74 78 75 72 72 76 82 83 80 80 81 81 82 85 88 89 89 89 92 97 103 104 101 100 100 100 101 98 85 69 58 57
101 101 102 100 100 101 97 94 87 78 82 94 97 96 96 94 91 87 83 81 79 78 78 82 84 84 81 81 83 72 59 61 70 73 74 74 74 78 84 85 82 79 79 81 84 87 91 95 98 98 96 97 101 103 102 102 101 99 101 100 91 75 61
101 101 102 101 100 101 100 100 99 94 94 99 100 99 100 100 96 90 84 80 78 77 78 83 90 93 87 83 90 91 74 60 59 62 63 69 75 78 80 83 86 85 82 78 80 84 89 94 99 103 105 102 100 101 103 103 103 101 100 100 101 96 82
100 99 101 101 100 101 98 90 91 98 101 100 100 99 100 100 101 97 91 88 88 87 87 88 91 96 95 90 94 102 92 73 65 64 59 58 66 75 78 78 80 85 88 84 80 80 83 88 94 99 104 106 105 103 104 105 105 104 102 99 100 101 100
100 100 101 101 99 101 100 87 80 86 93 95 96 97 97 98 99 97 93 93 97 100 99 94 90 89 90 91 95 102 96 77 67 69 68 62 60 66 75 81 81 82 85 90 88 82 79 79 84 93 99 102 105 105 105 107 107 105 104 103 101 99 100
100 101 101 102 100 99 101 96 88 86 86 85 83 84 85 82 80 82 82 79 78 84 90 90 88 84 82 83 83 84 79 67 62 69 74 72 69 67 69 77 87 90 88 90 95 93 87 81 77 81 89 96 101 104 104 105 105 105 104 103 103 102 101
100 103 101 102 102 100 101 101 99 96 94 90 84 79 76 70 65 65 66 62 56 59 65 71 74 75 76 78 77 74 70 64 65 73 79 79 79 80 78 77 85 93 92 91 95 97 96 96 90 83 82 87 92 97 101 103 104 105 106 105 104 103 103
100 105 104 101 101 100 100 100 100 99 99 99 97 93 88 80 70 60 55 52 51 52 53 56 60 63 66 69 69 69 71 73 77 81 82 81 78 80 86 88 87 89 90 93 96 96 96 100 103 101 97 91 88 90 93 97 100 102 104 106 107 106 105
100 106 108 104 101 101 100 100 100 100 100 101 101 101 100 97 92 81 68 61 60 60 58 57 58 60 61 60 59 59 62 69 75 77 76 73 68 67 74 88 97 96 94 95 96 96 96 97 97 101 105 104 99 96 92 91 95 98 101 103 104 105 106
87 97 105 105 105 103 101 101 100 100 102 104 104 104 104 104 104 100 93 86 83 81 77 72 66 61 56 53 53 53 55 57 60 62 63 63 62 62 66 77 91 99 101 101 97 92 91 96 97 94 94 97 100 102 100 96 94 94 99 103 103 102 103
86 95 103 106 107 106 104 104 103 104 109 111 108 106 104 104 104 104 104 102 97 90 84 77 67 58 52 49 47 47 47 47 48 51 56 59 60 62 73 84 90 96 101 101 98 88 80 84 92 93 89 86 86 90 95 100 99 94 95 100 104 105 104
93 101 107 106 105 105 105 106 105 105 109 110 106 99 94 94 95 96 95 95 92 86 78 69 60 54 51 48 46 46 43 40 43 49 57 64 62 59 70 87 95 99 102 97 91 82 71 65 68 73 77 78 78 76 76 85 96 99 97 95 97 101 104
92 100 106 107 107 106 106 108 107 104 102 105 106 102 98 95 94 92 87 80 76 72 66 62 61 59 56 52 48 46 43 40 40 45 54 66 68 60 58 65 71 77 82 79 72 66 57 50 46 47 52 58 64 64 60 61 74 90 100 100 98 98 99
94 101 107 110 110 108 106 107 108 105 102 102 103 105 107 105 101 99 97 89 80 74 69 67 66 62 57 56 55 47 41 41 42 43 48 56 60 58 53 50 47 47 48 49 48 45 41 39 37 37 39 42 45 49 50 48 52 65 83 97 102 102 101
99 105 108 109 108 106 105 105 106 107 106 103 100 101 105 106 103 101 101 99 97 96 88 79 76 73 66 66 70 59 44 42 46 47 50 53 54 55 53 47 41 39 38 39 38 37 36 35 35 34 34 36 37 39 42 45 47 51 62 78 90 95 98
105 108 107 106 105 104 103 102 103 105 105 104 103 102 102 103 104 103 101 99 102 103 97 87 87 91 86 82 84 76 59 52 50 48 50 53 52 52 51 45 40 37 37 38 36 34 33 33 33 33 32 32 34 35 37 40 45 51 57 64 72 79 86
108 110 108 105 104 104 103 103 104 104 102 102 103 102 102 104 104 104 102 101 101 100 97 93 93 98 99 95 92 85 73 67 60 52 51 55 54 52 50 47 42 37 35 35 35 34 34 33 32 32 32 31 31 32 34 36 39 44 50 56 61 66 72
108 111 109 106 105 106 105 104 104 103 100 101 103 101 102 105 105 105 105 103 101 101 101 98 96 98 101 101 99 90 79 73 69 62 62 66 65 59 54 50 45 40 36 34 32 32 34 35 35 36 36 35 33 32 32 33 36 38 40 45 50 55 59
105 110 110 108 107 106 106 105 103 102 100 100 102 102 102 105 105 105 106 104 102 103 103 101 101 100 99 99 95 88 80 77 75 73 75 80 78 68 58 52 47 43 40 36 34 33 32 33 35 38 41 41 40 39 37 35 35 36 36 38 40 43 46
91 101 106 109 108 106 105 105 103 104 107 105 103 103 102 103 104 104 103 103 104 104 102 101 102 103 105 105 99 94 91 87 86 87 89 94 93 78 62 54 49 44 42 39 36 35 33 33 34 36 39 42 44 45 45 43 42 40 38 36 35 37 38
71 80 90 99 104 105 106 107 104 105 109 107 106 105 104 103 105 103 102 102 104 104 103 103 103 102 106 110 107 105 102 99 99 99 98 103 103 86 67 59 53 47 44 41 38 36 35 35 36 38 39 41 43 44 46 48 50 49 46 40 36 36 36
66 69 72 76 82 88 94 101 104 106 106 105 105 105 105 105 104 101 102 102 102 103 103 102 101 102 105 109 108 107 106 106 105 103 102 107 105 85 67 60 54 49 47 43 40 38 38 40 41 42 43 42 42 43 44 46 48 50 49 46 44 42 40
80 78 73 69 68 70 74 81 89 97 103 107 109 106 104 104 102 101 102 102 101 105 106 102 101 104 107 109 109 109 110 110 108 106 107 107 96 76 64 58 52 49 47 44 41 41 43 47 49 48 47 45 44 43 43 44 45 46 46 46 46 46 45
89 85 82 78 74 72 75 78 82 88 96 103 108 108 107 107 106 106 108 109 108 110 109 104 102 102 101 100 101 102 104 105 107 109 107 97 80 66 57 52 49 49 47 44 44 46 50 55 56 55 53 50 48 47 46 45 44 44 44 44 44 44 44
83 84 84 84 83 83 86 88 88 89 91 94 98 100 100 103 106 108 110 111 110 108 105 101 97 94 91 89 89 91 94 98 102 101 93 79 67 57 51 47 47 47 46 44 44 49 55 58 59 59 58 56 54 52 51 49 47 45 43 42 42 41 41
60 64 67 72 79 86 90 89 86 86 88 88 88 88 88 91 96 99 100 99 97 94 90 88 86 86 87 87 88 89 89 89 87 80 70 60 54 49 46 45 45 45 45 44 46 51 55 58 59 61 62 62 61 59 57 55 52 49 47 45 43 41 39
43 44 46 50 56 66 74 77 77 79 80 81 80 80 81 84 87 89 89 89 89 88 85 83 83 83 83 82 79 75 70 65 60 54 49 45 44 43 42 42 44 45 44 44 47 51 54 57 61 64 65 65 64 62 60 58 55 52 50 47 45 42 41
48 46 45 44 44 47 52 56 60 61 61 62 62 62 64 68 70 71 72 74 76 76 74 72 69 66 63 58 53 49 45 42 40 39 38 38 38 39 40 41 42 44 45 48 51 54 58 61 64 66 65 64 62 59 57 55 53 51 49 47 45 43 41
58 54 50 47 45 45 45 46 49 50 50 50 50 50 51 52 53 53 53 54 55 55 55 53 50 47 45 42 40 39 38 38 38 38 38 39 40 41 42 44 46 48 51 55 58 61 64 65 64 62 60 57 56 55 53 51 48 46 44 42 41 39 38
66 61 57 52 49 47 47 47 47 48 49 49 50 50 51 52 53 55 54 53 52 51 51 51 50 48 47 46 46 46 46 46 46 46 46 47 47 49 50 52 55 58 60 63 65 66 65 63 60 57 56 54 53 50 47 45 42 40 38 37 36 34 33
Wind_Speed
45 46 47 48 49 50 50 51 51 50 50 50 49 49 49 47 46 44 42 39 37 33 30 27 25 24 25 24 23 22 22 21 21 21 23 26 29 31 33 34 34 33 35 37 38 38 37 35 33 32 33 36 37 35 33 34 34 34 35 36 37 37 37
49 50 50 50 50 50 51 51 50 49 49 48 47 47 46 45 44 41 40 38 35 32 29 26 24 24 24 23 22 22 22 22 22 22 22 24 25 26 27 28 28 28 30 33 35 37 39 40 39 38 36 38 41 39 36 36 36 37 38 38 38 38 37
53 53 52 52 51 51 52 51 51 50 49 48 47 45 44 43 42 40 39 37 34 31 28 26 25 26 25 25 24 23 23 23 23 23 23 23 24 25 25 25 25 25 26 28 29 31 33 36 39 40 39 38 40 40 39 38 38 39 41 41 40 40 39
53 52 51 50 49 49 48 48 47 47 46 45 44 43 42 41 40 39 37 36 34 31 28 27 26 27 27 27 26 25 23 23 24 24 24 24 24 24 25 25 24 23 24 24 25 27 29 31 34 38 40 39 39 40 40 40 39 39 41 43 43 42 41
49 47 45 43 42 40 40 40 40 40 40 40 40 40 40 40 39 38 36 35 33 32 29 28 27 27 28 28 29 28 26 25 24 25 25 25 25 25 25 26 25 24 23 23 24 25 26 29 31 34 40 41 40 40 40 40 39 39 40 42 43 44 44
44 42 40 39 38 38 37 37 37 37 37 37 37 37 37 38 39 39 37 35 34 33 32 30 28 27 28 29 29 29 28 27 26 26 27 27 27 26 26 26 26 25 24 24 24 25 25 27 29 32 37 42 43 43 42 40 38 38 39 40 41 43 44
44 43 43 42 41 41 39 39 39 38 36 35 35 36 35 36 37 38 39 38 36 36 34 33 31 30 30 31 31 31 30 29 28 28 28 28 28 29 28 27 27 27 26 25 25 25 26 26 28 30 34 40 44 44 44 43 39 38 40 42 42 42 43
47 47 47 46 45 45 43 41 41 39 36 35 35 35 36 36 36 37 38 39 40 40 40 38 37 35 35 35 34 33 32 30 29 29 29 30 30 30 31 30 29 28 27 27 26 26 26 26 27 29 31 36 42 45 46 46 44 42 41 43 44 43 42
49 49 49 49 48 48 46 44 43 41 39 40 40 38 37 37 37 38 39 40 41 42 43 43 42 41 40 39 37 36 34 32 30 30 31 32 32 33 33 32 32 31 30 29 28 27 26 26 27 28 30 32 37 43 46 48 48 47 45 44 44 45 44
49 49 50 50 50 50 49 46 44 44 45 46 46 44 43 42 41 41 41 40 41 41 42 43 44 44 43 42 41 39 38 37 36 35 34 33 34 35 35 34 34 34 33 32 31 30 29 28 28 28 30 32 34 37 42 46 48 49 49 47 46 45 45
51 51 53 53 52 52 54 51 47 47 48 49 50 49 49 48 46 44 43 42 41 41 42 42 43 44 45 45 44 43 43 43 42 40 38 37 36 36 37 37 37 36 36 35 35 33 32 31 31 30 31 32 33 35 38 42 45 48 50 51 51 49 47
54 54 56 57 56 56 58 56 52 51 51 52 52 52 52 52 50 47 44 42 41 42 43 43 44 45 46 47 47 46 46 46 45 44 42 40 39 38 38 38 39 38 38 38 38 38 37 35 34 34 33 34 34 35 36 39 42 45 47 50 53 54 52
56 57 57 58 59 60 61 59 56 54 53 53 54 54 55 55 54 51 48 46 45 45 46 46 46 46 47 48 48 49 49 48 47 46 45 43 42 41 40 39 39 39 40 40 40 40 40 40 39 38 37 37 37 36 37 38 39 42 45 47 50 53 55
56 57 57 56 55 57 58 58 56 54 53 53 54 54 55 57 57 56 54 52 51 50 49 49 48 48 48 48 49 50 50 50 50 49 48 47 45 44 43 41 40 40 40 40 41 42 42 42 42 42 42 41 40 40 39 39 39 41 43 45 47 49 52
56 57 56 54 52 52 53 53 53 52 53 54 54 55 56 57 59 59 58 57 56 55 53 52 52 52 51 51 51 52 52 53 53 52 52 50 49 48 46 45 44 43 42 41 42 43 43 43 44 44 45 45 45 44 43 42 42 42 42 44 45 47 49
61 61 59 57 55 54 54 54 54 54 55 56 57 57 57 58 59 60 60 59 59 59 58 58 57 57 57 56 56 55 55 55 55 55 55 54 52 51 50 48 48 47 47 45 44 44 44 44 45 45 46 47 47 47 47 46 46 45 45 45 45 46 48
65 65 64 62 61 60 59 59 58 58 59 60 60 60 59 59 59 60 61 60 60 61 61 62 62 62 61 60 59 58 56 55 55 55 56 55 53 52 51 51 51 51 51 50 50 48 47 46 46 46 46 47 48 49 49 50 49 49 49 48 48 48 48
63 63 64 64 64 63 63 63 63 63 64 65 65 64 63 61 61 61 60 60 61 62 63 64 64 63 63 62 61 60 57 56 55 54 54 54 53 50 49 49 50 51 52 52 52 51 50 50 49 49 49 49 49 50 51 52 52 52 52 52 52 51 51
60 61 61 61 62 62 62 62 62 63 64 65 66 66 64 63 62 62 61 60 60 61 62 63 63 63 63 62 62 60 56 53 52 49 48 49 50 48 47 46 47 48 49 50 49 49 50 51 52 53 53 53 53 53 53 54 54 55 55 55 55 55 54
59 59 59 59 59 60 59 59 60 60 59 60 61 60 59 59 60 60 60 60 60 60 60 61 62 62 62 62 61 56 48 44 44 42 41 43 45 46 46 47 48 48 49 50 51 51 51 51 52 53 54 56 56 56 56 56 57 57 57 57 57 57 57
57 57 57 58 58 58 57 57 57 57 56 55 53 52 52 53 54 54 55 57 59 60 60 59 59 60 59 60 62 57 47 42 42 42 43 44 46 47 48 49 50 51 50 51 51 51 51 51 51 51 52 54 55 57 58 58 59 60 60 59 59 59 59
56 55 56 56 56 56 56 55 53 53 53 53 51 48 49 51 52 53 54 54 56 59 59 57 57 58 57 58 61 62 55 48 44 45 46 47 48 49 49 50 51 51 50 50 50 50 50 51 51 51 52 52 53 54 56 57 59 60 61 61 62 62 62
57 56 56 56 55 55 56 56 55 54 54 55 52 50 52 54 55 56 57 56 58 60 61 59 56 57 58 58 60 63 62 56 51 49 49 49 50 50 51 51 51 50 49 50 51 52 52 52 52 53 53 53 54 54 55 56 57 59 60 62 63 64 64
58 58 59 58 58 58 58 59 59 59 59 58 56 55 56 57 58 59 60 60 62 64 64 62 60 58 59 61 62 65 65 62 59 57 54 53 52 53 53 54 53 52 51 51 52 53 53 54 54 54 55 55 55 55 56 56 57 58 59 61 63 64 65
60 60 61 61 61 62 63 63 62 62 62 61 60 59 59 59 60 61 62 64 66 67 67 66 65 63 63 65 67 68 67 65 64 63 60 59 58 58 58 58 57 56 54 53 53 53 53 54 55 55 57 58 58 58 58 58 58 59 60 61 63 65 66
62 62 62 63 63 64 64 64 64 64 64 63 62 61 61 61 61 62 64 67 68 69 69 68 67 66 67 68 70 70 70 68 67 67 66 65 64 64 63 61 61 60 59 57 56 55 54 54 54 55 56 58 59 60 60 60 60 61 62 62 64 65 66
64 64 64 64 65 65 65 65 65 65 66 65 64 64 63 64 64 65 66 67 68 70 70 69 68 68 69 71 72 73 72 72 71 71 72 72 71 69 68 66 64 63 62 61 60 58 57 56 55 56 57 58 59 60 61 62 63 64 65 66 66 66 66
67 67 66 66 67 67 67 67 67 67 68 68 68 67 68 68 68 69 69 69 70 71 71 72 72 72 73 74 75 76 76 76 76 77 77 77 76 74 72 70 68 66 65 64 63 61 60 60 59 59 59 60 61 61 62 63 64 66 68 69 68 68 69
67 68 69 69 69 69 69 69 69 69 68 69 69 70 70 71 70 71 71 71 72 73 73 74 74 74 75 75 76 78 79 79 80 79 79 78 76 75 73 72 70 69 68 67 66 64 64 64 63 63 63 63 63 63 64 65 66 69 71 71 71 71 72
66 68 69 70 70 70 70 69 70 70 70 70 71 72 72 72 72 72 72 73 74 75 75 75 75 75 75 75 76 77 78 78 78 78 77 75 74 73 73 71 71 70 69 68 68 67 67 67 67 67 67 66 66 65 66 67 68 70 71 73 73 74 75
64 66 67 68 69 68 68 69 70 70 71 72 73 73 73 73 73 73 74 75 76 77 77 77 76 76 75 75 75 75 75 75 75 75 75 74 73 72 71 71 70 70 70 70 70 70 70 70 70 70 70 70 69 69 70 70 71 72 73 74 75 76 77
61 63 63 64 65 65 66 67 69 70 71 72 73 74 74 74 74 74 75 76 77 77 77 77 76 76 75 74 74 73 73 73 73 74 74 73 72 71 70 70 70 71 71 71 72 72 73 73 73 73 73 74 74 74 74 75 75 75 76 76 76 77 77
60 61 61 61 61 62 64 65 66 67 68 70 71 72 72 72 72 73 73 74 75 75 75 74 73 73 72 72 72 71 71 71 71 72 72 71 71 70 70 70 71 72 72 73 74 75 75 76 76 76 77 77 77 78 78 78 79 79 79 79 79 79 79
63 62 61 61 61 62 63 64 64 65 66 67 68 68 69 69 69 70 70 71 72 72 72 71 71 71 71 71 71 70 70 70 69 69 69 69 69 69 70 71 72 73 74 76 77 77 78 78 79 79 79 80 80 80 81 81 81 82 82 81 81 81 80
67 66 66 65 63 63 63 64 64 65 65 65 66 66 66 67 67 68 69 69 70 71 71 71 71 71 71 71 70 70 69 68 68 68 68 68 68 69 70 71 73 75 76 78 78 79 80 80 81 81 81 82 82 83 83 83 83 83 83 83 82 82 81
73 72 71 70 68 67 66 66 66 67 67 67 67 67 67 67 67 68 69 69 70 70 71 71 72 72 72 71 70 70 69 68 68 68 68 69 70 71 72 73 75 77 78 79 80 81 82 82 83 83 83 83 83 84 84 84 83 83 82 81 81 81 80
78 77 76 75 73 72 71 70 69 69 69 69 69 69 69 69 69 69 70 71 71 72 72 73 73 73 73 72 72 71 70 70 70 70 71 72 72 73 74 75 77 79 80 81 82 83 83 84 84 84 84 84 84 84 83 82 81 80 79 78 78 78 77
Wind_Direction
269 269 269 269 270 272 273 275 277 280 282 284 285 286 287 287 288 289 289 288 287 285 285 286 289 293 296 293 287 283 281 279 278 270 261 258 256 254 254 255 255 252 249 248 248 245 240 237 237 238 240 247 250 248 246 245 243 243 245 246 248 250 253
271 271 271 272 273 274 275 276 277 279 281 282 284 284 285 285 286 286 285 284 283 283 285 286 288 292 294 293 287 280 279 278 278 277 272 268 264 260 257 255 254 252 250 248 247 247 243 239 238 238 240 245 250 250 248 247 246 245 245 247 247 249 252
273 273 273 274 275 275 276 276 277 278 279 280 280 280 281 281 282 283 283 282 281 281 284 286 288 291 292 294 291 284 277 275 275 276 276 274 271 268 264 260 258 256 254 252 249 247 245 243 240 238 239 244 247 249 249 247 245 245 245 247 248 248 249
275 274 275 275 275 275 276 276 277 277 278 278 277 276 275 276 276 277 279 280 280 280 282 286 289 290 291 292 292 290 283 276 273 274 275 275 274 272 270 267 263 260 257 255 253 249 247 244 241 237 235 239 242 244 246 246 244 243 244 245 247 248 248
274 274 274 273 272 272 273 275 277 277 278 277 276 275 273 272 271 272 273 275 276 278 280 284 286 288 290 290 290 290 288 283 278 274 273 273 274 273 272 270 267 264 262 259 256 253 249 246 244 239 235 235 238 240 242 244 244 242 241 243 244 246 248
274 273 272 271 269 268 269 272 275 277 278 278 277 276 274 272 270 269 269 270 271 273 276 278 281 283 286 288 289 289 287 286 283 279 274 272 272 271 271 270 268 266 263 261 260 258 254 249 245 242 237 234 235 238 240 242 245 244 242 241 241 242 244
275 274 274 274 272 271 270 271 274 275 277 279 279 278 276 273 271 269 267 266 266 269 270 271 273 276 280 283 287 288 286 284 283 282 279 275 272 271 270 270 269 267 264 261 260 260 259 256 250 246 242 237 235 237 239 240 243 245 245 244 244 242 241
274 274 275 276 275 274 274 274 274 274 276 279 282 282 280 278 275 272 269 266 265 266 267 268 270 272 276 279 283 286 285 283 283 283 282 280 276 273 271 270 269 268 267 263 261 260 260 259 257 252 248 243 238 237 238 240 241 243 245 247 248 247 244
273 274 275 275 274 274 273 273 273 272 272 276 280 280 280 279 278 276 274 271 269 268 267 268 269 271 273 276 279 282 283 282 283 284 284 283 281 278 274 272 270 269 268 266 263 262 260 259 259 257 254 251 245 241 239 240 241 242 243 244 247 248 247
270 272 274 274 273 272 271 269 270 270 270 272 275 277 277 277 277 278 276 275 274 273 272 271 270 269 271 273 274 277 278 279 281 283 284 283 283 281 278 274 272 270 268 267 265 263 262 261 260 259 257 256 253 248 245 243 242 241 242 242 244 246 248
267 269 270 271 272 272 271 268 267 269 270 271 272 274 275 275 276 277 276 275 274 274 274 273 272 270 270 270 272 273 275 276 278 280 281 281 281 280 280 277 275 272 269 267 266 264 262 261 261 260 259 257 255 254 251 248 246 243 242 242 243 244 247
265 266 266 267 268 270 271 271 269 269 270 272 272 272 273 274 274 275 273 271 271 272 272 272 272 272 271 271 271 272 273 274 276 278 279 279 279 278 278 278 276 274 271 268 266 265 263 262 261 260 260 259 257 256 254 252 250 248 245 243 243 244 246
263 264 264 265 266 267 270 272 272 272 272 272 272 272 272 272 272 272 271 270 270 270 271 271 271 272 273 273 272 272 272 273 274 276 277 278 278 277 276 276 275 274 273 270 268 266 265 264 262 261 260 260 259 258 256 254 252 251 249 247 245 245 247
261 262 263 264 266 267 269 271 273 275 275 274 273 272 272 272 272 272 272 272 272 272 271 271 271 271 272 273 273 273 273 273 273 274 275 277 277 275 275 274 273 273 273 272 270 268 267 265 264 263 262 261 260 259 258 257 255 253 252 250 248 247 248
259 261 263 264 265 266 268 270 272 273 273 273 272 272 271 272 272 273 273 274 274 274 274 274 273 272 273 273 274 274 273 273 273 273 274 274 274 273 273 272 270 270 271 272 271 269 268 267 265 264 263 262 262 261 260 258 257 256 254 253 251 250 249
260 261 263 263 264 264 265 266 269 270 269 269 269 269 269 269 270 271 272 273 274 275 275 274 274 274 274 274 275 275 274 273 272 272 272 272 272 272 271 270 269 268 269 270 269 269 268 267 265 264 263 262 262 261 261 260 259 258 257 256 254 252 251
261 261 262 262 262 262 262 264 266 268 269 269 269 270 270 270 270 271 272 272 272 272 272 272 273 274 274 274 274 273 273 273 272 272 272 272 272 271 270 268 268 268 269 269 269 268 267 266 264 264 264 263 262 262 261 260 259 258 257 257 256 255 254
261 261 262 262 263 263 263 264 265 266 268 269 270 270 271 272 273 274 274 274 273 272 272 272 272 273 273 273 273 273 272 272 273 273 272 271 269 269 269 269 268 268 268 269 270 269 267 265 264 263 263 264 263 263 262 260 259 258 257 257 256 256 255
261 261 261 261 262 263 263 264 265 266 267 270 271 271 272 273 273 273 274 274 274 273 272 273 273 273 274 273 273 273 274 273 272 270 270 269 268 267 267 268 269 269 268 268 268 269 270 268 266 265 264 263 263 263 263 261 259 258 257 256 256 256 255
259 260 260 260 260 261 262 263 264 265 267 271 274 275 276 275 275 275 274 274 273 273 273 275 276 276 277 277 277 276 275 274 271 267 266 268 270 272 272 270 270 270 269 269 269 271 272 272 270 268 266 265 264 263 263 262 260 258 257 256 256 255 255
258 259 260 260 259 260 261 263 264 265 267 269 273 277 278 277 277 277 276 276 276 276 276 276 277 278 279 281 283 284 283 281 276 271 269 269 271 274 276 276 275 273 273 273 274 274 274 274 272 270 268 266 265 264 263 262 260 258 257 256 255 254 254
257 257 258 259 260 261 261 261 262 265 267 268 269 272 273 273 273 273 274 275 275 275 275 276 277 278 280 281 283 285 287 286 282 277 275 273 273 274 277 278 277 277 277 277 277 277 276 275 274 273 271 268 266 265 263 262 261 259 258 257 256 255 254
256 256 256 257 259 260 260 260 260 262 264 264 264 264 266 267 269 270 272 273 272 272 273 275 276 276 277 278 278 281 286 287 284 281 279 277 277 277 279 279 278 278 278 278 279 278 277 276 275 273 272 270 269 267 265 264 262 260 259 258 258 257 257
255 255 256 257 257 258 258 258 260 261 261 261 261 261 262 264 265 267 269 270 270 271 273 274 274 273 273 274 275 278 282 284 284 284 284 282 282 282 282 281 280 279 277 277 277 277 277 276 275 274 273 272 270 269 268 266 265 263 261 260 259 258 258
255 254 255 256 256 257 257 258 259 260 260 260 261 261 261 261 262 263 265 266 268 269 271 272 273 272 271 272 274 277 280 281 282 284 285 285 285 284 283 283 282 281 279 278 276 275 274 274 274 274 274 273 272 271 270 269 268 266 264 263 261 260 259
254 254 254 255 255 256 257 257 258 259 259 259 259 260 260 260 260 261 262 263 265 266 268 270 271 272 272 273 274 276 278 279 280 282 284 285 285 284 283 282 282 281 281 279 278 276 274 273 272 271 271 271 272 272 272 271 269 268 267 265 263 262 261
254 254 254 254 255 255 256 257 258 259 260 260 259 259 259 259 260 261 262 262 263 264 265 266 268 270 272 274 275 276 277 278 279 281 282 284 284 283 283 282 282 281 280 279 278 277 276 274 272 270 269 269 269 269 269 270 270 269 268 266 265 265 264
256 255 255 254 254 255 256 257 258 259 260 260 261 261 261 261 261 262 263 263 263 264 264 265 266 267 269 271 272 274 275 276 277 279 280 281 282 281 281 281 281 280 280 279 278 277 276 275 273 271 270 269 268 267 267 267 267 267 267 267 267 266 265
260 258 257 255 254 254 255 256 257 258 259 260 261 261 261 262 262 263 264 265 265 266 266 266 267 267 268 268 269 270 272 273 275 276 277 278 278 278 278 278 278 278 278 278 278 277 277 276 275 274 273 271 270 269 268 267 266 266 266 266 266 266 265
262 260 259 258 257 256 256 256 257 258 258 259 260 261 261 262 263 264 265 265 266 266 267 267 268 268 268 268 269 269 271 272 273 274 275 275 276 276 275 276 276 276 277 277 277 278 278 278 277 277 276 274 273 272 270 269 267 266 266 266 265 264 264
260 260 260 260 260 259 258 258 258 258 258 258 259 260 261 262 263 263 264 265 265 266 266 267 268 268 268 269 269 269 270 271 272 273 273 274 274 273 273 274 274 275 275 276 277 278 279 279 279 278 278 277 276 275 274 273 271 270 268 267 266 265 264
259 259 259 259 259 259 259 258 258 258 258 258 258 259 260 261 262 262 263 264 264 265 266 266 267 268 268 268 269 269 269 269 270 271 272 272 273 272 272 273 273 273 274 274 276 277 278 278 278 278 278 278 278 278 277 276 275 273 272 271 269 267 266
260 260 259 259 258 258 258 258 257 257 258 258 258 259 259 260 261 261 262 263 264 265 265 266 266 267 267 268 268 268 268 268 269 269 270 270 271 271 271 272 272 272 273 273 275 276 277 277 278 278 278 279 279 278 278 277 276 275 274 273 272 270 269
263 262 261 260 259 258 258 259 259 259 259 258 259 259 260 260 261 262 262 263 264 265 266 266 267 267 267 267 267 267 268 268 268 268 269 269 269 270 270 270 271 271 271 272 274 275 276 277 278 278 278 278 278 278 277 276 276 275 275 274 273 272 272
264 264 263 262 260 259 259 259 260 260 260 261 261 261 262 262 263 263 264 264 265 266 266 267 267 267 267 267 268 268 268 268 268 268 268 268 268 269 269 269 270 270 271 272 274 275 276 277 277 277 278 278 277 277 277 276 276 275 275 275 275 274 274
266 265 264 263 262 261 260 259 259 259 260 260 261 261 262 262 263 264 264 264 265 265 266 266 267 267 267 268 268 268 268 269 269 269 269 269 269 269 270 270 271 272 273 274 275 276 276 277 277 277 277 277 277 277 277 277 277 277 276 276 276 275 274
265 265 265 265 264 263 262 261 261 260 260 260 260 260 261 261 261 262 263 264 264 264 265 265 265 266 267 267 268 268 269 269 269 269 269 270 270 270 271 271 272 273 274 275 276 276 277 277 278 278 278 278 278 278 278 278 278 278 277 276 276 275 274